owner,sensor,date,latitude,longitude,vertical_datum,wind_speed,wind_to_direction,wind_speed_of_gust,qcFlag 
DISL,ioos:station:DISL:KATA:1,2014-03-01T00:00:00Z,30.2583,-88.2131,0.0,6.19,109.6,-9999.0,'1111122,1111122,1111122' 
DISL,ioos:station:DISL:KATA:1,2014-03-01T00:30:00Z,30.2583,-88.2131,0.0,7.46,105.9,-9999.0,'1111122,1111122,1111122' 
DISL,ioos:station:DISL:KATA:1,2014-03-01T01:00:00Z,30.2583,-88.2131,0.0,7.88,113.9,-9999.0,'1111122,1111122,1111122' 
DISL,ioos:station:DISL:KATA:1,2014-03-01T01:30:00Z,30.2583,-88.2131,0.0,7.33,117.0,-9999.0,'1111122,1111122,1111122' 
DISL,ioos:station:DISL:KATA:1,2014-03-01T02:00:00Z,30.2583,-88.2131,0.0,6.98,125.8,-9999.0,'1111122,1111122,1111122' 
DISL,ioos:station:DISL:KATA:1,2014-03-01T02:30:00Z,30.2583,-88.2131,0.0,6.16,130.5,-9999.0,'1111122,1111122,1111122' 
DISL,ioos:station:DISL:KATA:1,2014-03-01T03:00:00Z,30.2583,-88.2131,0.0,6.99,134.0,-9999.0,'1111122,1111122,1111122' 
DISL,ioos:station:DISL:KATA:1,2014-03-01T03:30:00Z,30.2583,-88.2131,0.0,6.74,129.4,-9999.0,'1111122,1111122,1111122' 
DISL,ioos:station:DISL:KATA:1,2014-03-01T04:00:00Z,30.2583,-88.2131,0.0,6.63,134.6,-9999.0,'1111122,1111122,1111122' 
DISL,ioos:station:DISL:KATA:1,2014-03-01T04:30:00Z,30.2583,-88.2131,0.0,6.35,143.2,-9999.0,'1111122,1111122,1111122' 
DISL,ioos:station:DISL:KATA:1,2014-03-01T05:00:00Z,30.2583,-88.2131,0.0,8.52,137.1,-9999.0,'1111122,1111122,1111122' 
DISL,ioos:station:DISL:KATA:1,2014-03-01T05:30:00Z,30.2583,-88.2131,0.0,7.93,144.3,-9999.0,'1111122,1111122,1111122' 
DISL,ioos:station:DISL:KATA:1,2014-03-01T06:00:00Z,30.2583,-88.2131,0.0,7.53,146.2,-9999.0,'1111122,1111122,1111122' 
DISL,ioos:station:DISL:KATA:1,2014-03-01T06:30:00Z,30.2583,-88.2131,0.0,7.0,155.8,-9999.0,'1111122,1111122,1111122' 
DISL,ioos:station:DISL:KATA:1,2014-03-01T07:00:00Z,30.2583,-88.2131,0.0,7.78,158.6,-9999.0,'1111122,1111122,1111122' 
DISL,ioos:station:DISL:KATA:1,2014-03-01T07:30:00Z,30.2583,-88.2131,0.0,7.8,162.6,-9999.0,'1111122,1111122,1111122' 
DISL,ioos:station:DISL:KATA:1,2014-03-01T08:00:00Z,30.2583,-88.2131,0.0,7.42,154.7,-9999.0,'1111122,1111122,1111122' 
DISL,ioos:station:DISL:KATA:1,2014-03-01T08:30:00Z,30.2583,-88.2131,0.0,7.68,160.8,-9999.0,'1111122,1111122,1111122' 
DISL,ioos:station:DISL:KATA:1,2014-03-01T09:00:00Z,30.2583,-88.2131,0.0,8.28,163.1,-9999.0,'1111122,1111122,1111122' 
DISL,ioos:station:DISL:KATA:1,2014-03-01T09:30:00Z,30.2583,-88.2131,0.0,6.62,154.8,-9999.0,'1111122,1111122,1111122' 
DISL,ioos:station:DISL:KATA:1,2014-03-01T10:00:00Z,30.2583,-88.2131,0.0,6.2,154.5,-9999.0,'1111122,1111122,1111122' 
DISL,ioos:station:DISL:KATA:1,2014-03-01T10:30:00Z,30.2583,-88.2131,0.0,5.76,159.2,-9999.0,'1111122,1111122,1111122' 
DISL,ioos:station:DISL:KATA:1,2014-03-01T11:00:00Z,30.2583,-88.2131,0.0,5.01,160.4,-9999.0,'1111122,1111122,1111122' 
DISL,ioos:station:DISL:KATA:1,2014-03-01T11:30:00Z,30.2583,-88.2131,0.0,3.49,158.9,-9999.0,'1111122,1111122,1111122' 
DISL,ioos:station:DISL:KATA:1,2014-03-01T12:00:00Z,30.2583,-88.2131,0.0,2.94,140.1,-9999.0,'1111122,1111122,1111122' 
DISL,ioos:station:DISL:KATA:1,2014-03-01T12:30:00Z,30.2583,-88.2131,0.0,2.89,101.7,-9999.0,'1111122,1111122,1111122' 
DISL,ioos:station:DISL:KATA:1,2014-03-01T13:00:00Z,30.2583,-88.2131,0.0,3.01,109.3,-9999.0,'1111122,1111122,1111122' 
DISL,ioos:station:DISL:KATA:1,2014-03-01T13:30:00Z,30.2583,-88.2131,0.0,3.09,98.2,-9999.0,'1111122,1111122,1111122' 
DISL,ioos:station:DISL:KATA:1,2014-03-01T14:00:00Z,30.2583,-88.2131,0.0,3.31,90.9,-9999.0,'1111122,1111122,1111122' 
DISL,ioos:station:DISL:KATA:1,2014-03-01T14:30:00Z,30.2583,-88.2131,0.0,3.69,105.0,-9999.0,'1111122,1111122,1111122' 
DISL,ioos:station:DISL:KATA:1,2014-03-01T15:00:00Z,30.2583,-88.2131,0.0,4.72,117.7,-9999.0,'1111122,1111122,1111122' 
DISL,ioos:station:DISL:KATA:1,2014-03-01T15:30:00Z,30.2583,-88.2131,0.0,5.31,127.6,-9999.0,'1111122,1111122,1111122' 
DISL,ioos:station:DISL:KATA:1,2014-03-01T16:00:00Z,30.2583,-88.2131,0.0,5.66,123.8,-9999.0,'1111122,1111122,1111122' 
DISL,ioos:station:DISL:KATA:1,2014-03-01T16:30:00Z,30.2583,-88.2131,0.0,5.83,131.0,-9999.0,'1111122,1111122,1111122' 
DISL,ioos:station:DISL:KATA:1,2014-03-01T17:00:00Z,30.2583,-88.2131,0.0,5.47,124.5,-9999.0,'1111122,1111122,1111122' 
DISL,ioos:station:DISL:KATA:1,2014-03-01T17:30:00Z,30.2583,-88.2131,0.0,5.81,128.0,-9999.0,'1111122,1111122,1111122' 
DISL,ioos:station:DISL:KATA:1,2014-03-01T18:00:00Z,30.2583,-88.2131,0.0,5.55,135.9,-9999.0,'1111122,1111122,1111122' 
DISL,ioos:station:DISL:KATA:1,2014-03-01T18:30:00Z,30.2583,-88.2131,0.0,5.54,133.5,-9999.0,'1111122,1111122,1111122' 
DISL,ioos:station:DISL:KATA:1,2014-03-01T19:00:00Z,30.2583,-88.2131,0.0,5.13,135.1,-9999.0,'1111122,1111122,1111122' 
DISL,ioos:station:DISL:KATA:1,2014-03-01T19:30:00Z,30.2583,-88.2131,0.0,5.55,136.9,-9999.0,'1111122,1111122,1111122' 
DISL,ioos:station:DISL:KATA:1,2014-03-01T20:00:00Z,30.2583,-88.2131,0.0,5.35,140.0,-9999.0,'1111122,1111122,1111122' 
DISL,ioos:station:DISL:KATA:1,2014-03-01T20:30:00Z,30.2583,-88.2131,0.0,5.33,134.1,-9999.0,'1111122,1111122,1111122' 
DISL,ioos:station:DISL:KATA:1,2014-03-01T21:00:00Z,30.2583,-88.2131,0.0,5.97,129.8,-9999.0,'1111122,1111122,1111122' 
DISL,ioos:station:DISL:KATA:1,2014-03-01T21:30:00Z,30.2583,-88.2131,0.0,5.89,136.1,-9999.0,'1111122,1111122,1111122' 
DISL,ioos:station:DISL:KATA:1,2014-03-01T22:00:00Z,30.2583,-88.2131,0.0,5.89,141.2,-9999.0,'1111122,1111122,1111122' 
DISL,ioos:station:DISL:KATA:1,2014-03-01T22:30:00Z,30.2583,-88.2131,0.0,6.02,138.1,-9999.0,'1111122,1111122,1111122' 
DISL,ioos:station:DISL:KATA:1,2014-03-01T23:00:00Z,30.2583,-88.2131,0.0,5.81,138.5,-9999.0,'1111122,1111122,1111122' 
DISL,ioos:station:DISL:KATA:1,2014-03-01T23:30:00Z,30.2583,-88.2131,0.0,5.76,139.1,-9999.0,'1111122,1111122,1111122' 
DISL,ioos:station:DISL:KATA:1,2014-03-02T00:00:00Z,30.2583,-88.2131,0.0,5.87,145.3,-9999.0,'1111122,1111122,1111122' 
DISL,ioos:station:DISL:KATA:1,2014-03-02T00:30:00Z,30.2583,-88.2131,0.0,5.38,140.9,-9999.0,'1111122,1111122,1111122' 
DISL,ioos:station:DISL:KATA:1,2014-03-02T01:00:00Z,30.2583,-88.2131,0.0,4.38,144.0,-9999.0,'1111122,1111122,1111122' 
DISL,ioos:station:DISL:KATA:1,2014-03-02T01:30:00Z,30.2583,-88.2131,0.0,4.38,154.7,-9999.0,'1111122,1111122,1111122' 
DISL,ioos:station:DISL:KATA:1,2014-03-02T02:00:00Z,30.2583,-88.2131,0.0,4.65,150.4,-9999.0,'1111122,1111122,1111122' 
DISL,ioos:station:DISL:KATA:1,2014-03-02T02:30:00Z,30.2583,-88.2131,0.0,5.27,154.3,-9999.0,'1111122,1111122,1111122' 
DISL,ioos:station:DISL:KATA:1,2014-03-02T03:00:00Z,30.2583,-88.2131,0.0,6.04,156.2,-9999.0,'1111122,1111122,1111122' 
DISL,ioos:station:DISL:KATA:1,2014-03-02T03:30:00Z,30.2583,-88.2131,0.0,6.26,157.6,-9999.0,'1111122,1111122,1111122' 
DISL,ioos:station:DISL:KATA:1,2014-03-02T04:00:00Z,30.2583,-88.2131,0.0,5.85,152.5,-9999.0,'1111122,1111122,1111122' 
DISL,ioos:station:DISL:KATA:1,2014-03-02T04:30:00Z,30.2583,-88.2131,0.0,6.81,149.0,-9999.0,'1111122,1111122,1111122' 
DISL,ioos:station:DISL:KATA:1,2014-03-02T05:00:00Z,30.2583,-88.2131,0.0,7.17,150.9,-9999.0,'1111122,1111122,1111122' 
DISL,ioos:station:DISL:KATA:1,2014-03-02T05:30:00Z,30.2583,-88.2131,0.0,6.39,152.4,-9999.0,'1111122,1111122,1111122' 
DISL,ioos:station:DISL:KATA:1,2014-03-02T06:00:00Z,30.2583,-88.2131,0.0,6.12,148.8,-9999.0,'1111122,1111122,1111122' 
DISL,ioos:station:DISL:KATA:1,2014-03-02T06:30:00Z,30.2583,-88.2131,0.0,6.17,153.3,-9999.0,'1111122,1111122,1111122' 
DISL,ioos:station:DISL:KATA:1,2014-03-02T07:00:00Z,30.2583,-88.2131,0.0,5.71,150.5,-9999.0,'1111122,1111122,1111122' 
DISL,ioos:station:DISL:KATA:1,2014-03-02T07:30:00Z,30.2583,-88.2131,0.0,5.41,149.7,-9999.0,'1111122,1111122,1111122' 
DISL,ioos:station:DISL:KATA:1,2014-03-02T08:00:00Z,30.2583,-88.2131,0.0,4.92,150.8,-9999.0,'1111122,1111122,1111122' 
DISL,ioos:station:DISL:KATA:1,2014-03-02T08:30:00Z,30.2583,-88.2131,0.0,4.83,143.7,-9999.0,'1111122,1111122,1111122' 
DISL,ioos:station:DISL:KATA:1,2014-03-02T09:00:00Z,30.2583,-88.2131,0.0,4.46,134.0,-9999.0,'1111122,1111122,1111122' 
DISL,ioos:station:DISL:KATA:1,2014-03-02T09:30:00Z,30.2583,-88.2131,0.0,5.15,138.6,-9999.0,'1111122,1111122,1111122' 
DISL,ioos:station:DISL:KATA:1,2014-03-02T10:00:00Z,30.2583,-88.2131,0.0,5.31,133.5,-9999.0,'1111122,1111122,1111122' 
DISL,ioos:station:DISL:KATA:1,2014-03-02T10:30:00Z,30.2583,-88.2131,0.0,4.46,123.6,-9999.0,'1111122,1111122,1111122' 
DISL,ioos:station:DISL:KATA:1,2014-03-02T11:00:00Z,30.2583,-88.2131,0.0,5.04,128.2,-9999.0,'1111122,1111122,1111122' 
DISL,ioos:station:DISL:KATA:1,2014-03-02T11:30:00Z,30.2583,-88.2131,0.0,5.47,126.6,-9999.0,'1111122,1111122,1111122' 
DISL,ioos:station:DISL:KATA:1,2014-03-02T12:00:00Z,30.2583,-88.2131,0.0,5.15,126.8,-9999.0,'1111122,1111122,1111122' 
DISL,ioos:station:DISL:KATA:1,2014-03-02T12:30:00Z,30.2583,-88.2131,0.0,5.03,122.3,-9999.0,'1111122,1111122,1111122' 
DISL,ioos:station:DISL:KATA:1,2014-03-02T13:00:00Z,30.2583,-88.2131,0.0,5.59,124.9,-9999.0,'1111122,1111122,1111122' 
DISL,ioos:station:DISL:KATA:1,2014-03-02T13:30:00Z,30.2583,-88.2131,0.0,5.56,126.6,-9999.0,'1111122,1111122,1111122' 
DISL,ioos:station:DISL:KATA:1,2014-03-02T14:00:00Z,30.2583,-88.2131,0.0,5.25,127.5,-9999.0,'1111122,1111122,1111122' 
DISL,ioos:station:DISL:KATA:1,2014-03-02T14:30:00Z,30.2583,-88.2131,0.0,5.76,125.2,-9999.0,'1111122,1111122,1111122' 
DISL,ioos:station:DISL:KATA:1,2014-03-02T15:00:00Z,30.2583,-88.2131,0.0,5.78,129.8,-9999.0,'1111122,1111122,1111122' 
DISL,ioos:station:DISL:KATA:1,2014-03-02T15:30:00Z,30.2583,-88.2131,0.0,5.41,135.0,-9999.0,'1111122,1111122,1111122' 
DISL,ioos:station:DISL:KATA:1,2014-03-02T16:00:00Z,30.2583,-88.2131,0.0,5.46,136.7,-9999.0,'1111122,1111122,1111122' 
DISL,ioos:station:DISL:KATA:1,2014-03-02T16:30:00Z,30.2583,-88.2131,0.0,5.32,133.2,-9999.0,'1111122,1111122,1111122' 
DISL,ioos:station:DISL:KATA:1,2014-03-02T17:00:00Z,30.2583,-88.2131,0.0,5.53,129.7,-9999.0,'1111122,1111122,1111122' 
DISL,ioos:station:DISL:KATA:1,2014-03-02T17:30:00Z,30.2583,-88.2131,0.0,5.41,126.6,-9999.0,'1111122,1111122,1111122' 
DISL,ioos:station:DISL:KATA:1,2014-03-02T18:00:00Z,30.2583,-88.2131,0.0,5.23,126.8,-9999.0,'1111122,1111122,1111122' 
DISL,ioos:station:DISL:KATA:1,2014-03-02T18:30:00Z,30.2583,-88.2131,0.0,5.14,126.0,-9999.0,'1111122,1111122,1111122' 
DISL,ioos:station:DISL:KATA:1,2014-03-02T19:00:00Z,30.2583,-88.2131,0.0,5.11,135.8,-9999.0,'1111122,1111122,1111122' 
DISL,ioos:station:DISL:KATA:1,2014-03-02T19:30:00Z,30.2583,-88.2131,0.0,4.67,135.0,-9999.0,'1111122,1111122,1111122' 
DISL,ioos:station:DISL:KATA:1,2014-03-02T20:00:00Z,30.2583,-88.2131,0.0,4.72,130.7,-9999.0,'1111122,1111122,1111122' 
DISL,ioos:station:DISL:KATA:1,2014-03-02T20:30:00Z,30.2583,-88.2131,0.0,5.25,134.3,-9999.0,'1111122,1111122,1111122' 
DISL,ioos:station:DISL:KATA:1,2014-03-02T21:00:00Z,30.2583,-88.2131,0.0,5.76,135.1,-9999.0,'1111122,1111122,1111122' 
DISL,ioos:station:DISL:KATA:1,2014-03-02T21:30:00Z,30.2583,-88.2131,0.0,6.02,134.0,-9999.0,'1111122,1111122,1111122' 
DISL,ioos:station:DISL:KATA:1,2014-03-02T22:00:00Z,30.2583,-88.2131,0.0,6.73,134.9,-9999.0,'1111122,1111122,1111122' 
DISL,ioos:station:DISL:KATA:1,2014-03-02T22:30:00Z,30.2583,-88.2131,0.0,6.58,136.7,-9999.0,'1111122,1111122,1111122' 
DISL,ioos:station:DISL:KATA:1,2014-03-02T23:00:00Z,30.2583,-88.2131,0.0,6.49,136.0,-9999.0,'1111122,1111122,1111122' 
DISL,ioos:station:DISL:KATA:1,2014-03-02T23:30:00Z,30.2583,-88.2131,0.0,6.44,139.0,-9999.0,'1111122,1111122,1111122' 
DISL,ioos:station:DISL:KATA:1,2014-03-03T00:00:00Z,30.2583,-88.2131,0.0,6.92,144.7,-9999.0,'1111122,1111122,1111122' 
DISL,ioos:station:DISL:KATA:1,2014-03-03T00:30:00Z,30.2583,-88.2131,0.0,6.38,155.1,-9999.0,'1111122,1111122,1111122' 
DISL,ioos:station:DISL:KATA:1,2014-03-03T01:00:00Z,30.2583,-88.2131,0.0,6.9,159.1,-9999.0,'1111122,1111122,1111122' 
DISL,ioos:station:DISL:KATA:1,2014-03-03T01:30:00Z,30.2583,-88.2131,0.0,7.03,162.8,-9999.0,'1111122,1111122,1111122' 
DISL,ioos:station:DISL:KATA:1,2014-03-03T02:00:00Z,30.2583,-88.2131,0.0,6.78,168.4,-9999.0,'1111122,1111122,1111122' 
DISL,ioos:station:DISL:KATA:1,2014-03-03T02:30:00Z,30.2583,-88.2131,0.0,7.43,162.8,-9999.0,'1111122,1111122,1111122' 
DISL,ioos:station:DISL:KATA:1,2014-03-03T03:00:00Z,30.2583,-88.2131,0.0,7.32,168.3,-9999.0,'1111122,1111122,1111122' 
DISL,ioos:station:DISL:KATA:1,2014-03-03T03:30:00Z,30.2583,-88.2131,0.0,7.65,174.3,-9999.0,'1111122,1111122,1111122' 
DISL,ioos:station:DISL:KATA:1,2014-03-03T04:00:00Z,30.2583,-88.2131,0.0,7.41,176.5,-9999.0,'1111122,1111122,1111122' 
DISL,ioos:station:DISL:KATA:1,2014-03-03T04:30:00Z,30.2583,-88.2131,0.0,7.37,174.2,-9999.0,'1111122,1111122,1111122' 
DISL,ioos:station:DISL:KATA:1,2014-03-03T05:00:00Z,30.2583,-88.2131,0.0,8.13,173.7,-9999.0,'1111122,1111122,1111122' 
DISL,ioos:station:DISL:KATA:1,2014-03-03T05:30:00Z,30.2583,-88.2131,0.0,7.48,176.9,-9999.0,'1111122,1111122,1111122' 
DISL,ioos:station:DISL:KATA:1,2014-03-03T06:00:00Z,30.2583,-88.2131,0.0,6.86,181.1,-9999.0,'1111122,1111122,1111122' 
DISL,ioos:station:DISL:KATA:1,2014-03-03T06:30:00Z,30.2583,-88.2131,0.0,4.37,190.0,-9999.0,'1111122,1111122,1111122' 
DISL,ioos:station:DISL:KATA:1,2014-03-03T07:00:00Z,30.2583,-88.2131,0.0,3.92,177.7,-9999.0,'1111122,1111122,1111122' 
DISL,ioos:station:DISL:KATA:1,2014-03-03T07:30:00Z,30.2583,-88.2131,0.0,2.31,197.6,-9999.0,'1111122,1111122,1111122' 
DISL,ioos:station:DISL:KATA:1,2014-03-03T08:00:00Z,30.2583,-88.2131,0.0,4.2,167.0,-9999.0,'1111122,1111122,1111122' 
DISL,ioos:station:DISL:KATA:1,2014-03-03T08:30:00Z,30.2583,-88.2131,0.0,4.51,172.7,-9999.0,'1111122,1111122,1111122' 
DISL,ioos:station:DISL:KATA:1,2014-03-03T09:00:00Z,30.2583,-88.2131,0.0,4.27,189.4,-9999.0,'1111122,1111122,1111122' 
DISL,ioos:station:DISL:KATA:1,2014-03-03T09:30:00Z,30.2583,-88.2131,0.0,5.33,179.2,-9999.0,'1111122,1111122,1111122' 
DISL,ioos:station:DISL:KATA:1,2014-03-03T10:00:00Z,30.2583,-88.2131,0.0,6.24,191.6,-9999.0,'1111122,1111122,1111122' 
DISL,ioos:station:DISL:KATA:1,2014-03-03T10:30:00Z,30.2583,-88.2131,0.0,6.39,197.4,-9999.0,'1111122,1111122,1111122' 
DISL,ioos:station:DISL:KATA:1,2014-03-03T11:00:00Z,30.2583,-88.2131,0.0,7.37,202.5,-9999.0,'1111122,1111122,1111122' 
DISL,ioos:station:DISL:KATA:1,2014-03-03T11:30:00Z,30.2583,-88.2131,0.0,7.93,208.2,-9999.0,'1111122,1111122,1111122' 
DISL,ioos:station:DISL:KATA:1,2014-03-03T12:00:00Z,30.2583,-88.2131,0.0,7.51,211.1,-9999.0,'1111122,1111122,1111122' 
DISL,ioos:station:DISL:KATA:1,2014-03-03T12:30:00Z,30.2583,-88.2131,0.0,8.18,217.3,-9999.0,'1111122,1111122,1111122' 
DISL,ioos:station:DISL:KATA:1,2014-03-03T13:00:00Z,30.2583,-88.2131,0.0,7.81,233.1,-9999.0,'1111122,1111122,1111122' 
DISL,ioos:station:DISL:KATA:1,2014-03-03T13:30:00Z,30.2583,-88.2131,0.0,6.87,243.0,-9999.0,'1111122,1111122,1111122' 
DISL,ioos:station:DISL:KATA:1,2014-03-03T14:00:00Z,30.2583,-88.2131,0.0,7.78,247.4,-9999.0,'1111122,1111122,1111122' 
DISL,ioos:station:DISL:KATA:1,2014-03-03T14:30:00Z,30.2583,-88.2131,0.0,7.64,253.0,-9999.0,'1111122,1111122,1111122' 
DISL,ioos:station:DISL:KATA:1,2014-03-03T15:00:00Z,30.2583,-88.2131,0.0,11.26,323.6,-9999.0,'1111122,1111122,1111122' 
DISL,ioos:station:DISL:KATA:1,2014-03-03T15:30:00Z,30.2583,-88.2131,0.0,13.74,341.0,-9999.0,'1111122,1111122,1111122' 
DISL,ioos:station:DISL:KATA:1,2014-03-03T16:00:00Z,30.2583,-88.2131,0.0,13.25,352.8,-9999.0,'1111122,1111122,1111122' 
DISL,ioos:station:DISL:KATA:1,2014-03-03T16:30:00Z,30.2583,-88.2131,0.0,13.36,343.9,-9999.0,'1111122,1111122,1111122' 
DISL,ioos:station:DISL:KATA:1,2014-03-03T17:00:00Z,30.2583,-88.2131,0.0,11.68,349.9,-9999.0,'1111122,1111122,1111122' 
DISL,ioos:station:DISL:KATA:1,2014-03-03T17:30:00Z,30.2583,-88.2131,0.0,10.36,348.7,-9999.0,'1111122,1111122,1111122' 
DISL,ioos:station:DISL:KATA:1,2014-03-03T18:00:00Z,30.2583,-88.2131,0.0,10.03,351.1,-9999.0,'1111122,1111122,1111122' 
DISL,ioos:station:DISL:KATA:1,2014-03-03T18:30:00Z,30.2583,-88.2131,0.0,9.65,351.1,-9999.0,'1111122,1111122,1111122' 
DISL,ioos:station:DISL:KATA:1,2014-03-03T19:00:00Z,30.2583,-88.2131,0.0,8.91,345.6,-9999.0,'1111122,1111122,1111122' 
DISL,ioos:station:DISL:KATA:1,2014-03-03T19:30:00Z,30.2583,-88.2131,0.0,8.47,350.8,-9999.0,'1111122,1111122,1111122' 
DISL,ioos:station:DISL:KATA:1,2014-03-03T20:00:00Z,30.2583,-88.2131,0.0,8.01,357.3,-9999.0,'1111122,1111122,1111122' 
DISL,ioos:station:DISL:KATA:1,2014-03-03T20:30:00Z,30.2583,-88.2131,0.0,7.18,8.31,-9999.0,'1111122,1111122,1111122' 
DISL,ioos:station:DISL:KATA:1,2014-03-03T21:00:00Z,30.2583,-88.2131,0.0,7.23,353.6,-9999.0,'1111122,1111122,1111122' 
DISL,ioos:station:DISL:KATA:1,2014-03-03T21:30:00Z,30.2583,-88.2131,0.0,7.85,0.449,-9999.0,'1111122,1111122,1111122' 
DISL,ioos:station:DISL:KATA:1,2014-03-03T22:00:00Z,30.2583,-88.2131,0.0,8.29,345.6,-9999.0,'1111122,1111122,1111122' 
DISL,ioos:station:DISL:KATA:1,2014-03-03T22:30:00Z,30.2583,-88.2131,0.0,9.9,349.2,-9999.0,'1111122,1111122,1111122' 
DISL,ioos:station:DISL:KATA:1,2014-03-03T23:00:00Z,30.2583,-88.2131,0.0,9.43,9.17,-9999.0,'1111122,1111122,1111122' 
DISL,ioos:station:DISL:KATA:1,2014-03-03T23:30:00Z,30.2583,-88.2131,0.0,9.7,10.46,-9999.0,'1111122,1111122,1111122' 
DISL,ioos:station:DISL:KATA:1,2014-03-04T00:00:00Z,30.2583,-88.2131,0.0,10.35,4.68,-9999.0,'1111122,1111122,1111122' 
DISL,ioos:station:DISL:KATA:1,2014-03-04T00:30:00Z,30.2583,-88.2131,0.0,11.16,1.803,-9999.0,'1111122,1111122,1111122' 
DISL,ioos:station:DISL:KATA:1,2014-03-04T01:00:00Z,30.2583,-88.2131,0.0,11.74,356.6,-9999.0,'1111122,1111122,1111122' 
DISL,ioos:station:DISL:KATA:1,2014-03-04T01:30:00Z,30.2583,-88.2131,0.0,10.39,10.21,-9999.0,'1111122,1111122,1111122' 
DISL,ioos:station:DISL:KATA:1,2014-03-04T02:00:00Z,30.2583,-88.2131,0.0,10.65,10.02,-9999.0,'1111122,1111122,1111122' 
DISL,ioos:station:DISL:KATA:1,2014-03-04T02:30:00Z,30.2583,-88.2131,0.0,8.82,13.18,-9999.0,'1111122,1111122,1111122' 
DISL,ioos:station:DISL:KATA:1,2014-03-04T03:00:00Z,30.2583,-88.2131,0.0,9.34,32.83,-9999.0,'1111122,1111122,1111122' 
DISL,ioos:station:DISL:KATA:1,2014-03-04T03:30:00Z,30.2583,-88.2131,0.0,10.1,31.65,-9999.0,'1111122,1111122,1111122' 
DISL,ioos:station:DISL:KATA:1,2014-03-04T04:00:00Z,30.2583,-88.2131,0.0,8.03,24.97,-9999.0,'1111122,1111122,1111122' 
DISL,ioos:station:DISL:KATA:1,2014-03-04T04:30:00Z,30.2583,-88.2131,0.0,9.96,15.24,-9999.0,'1111122,1111122,1111122' 
DISL,ioos:station:DISL:KATA:1,2014-03-04T05:00:00Z,30.2583,-88.2131,0.0,11.53,17.86,-9999.0,'1111122,1111122,1111122' 
DISL,ioos:station:DISL:KATA:1,2014-03-04T05:30:00Z,30.2583,-88.2131,0.0,9.71,24.72,-9999.0,'1111122,1111122,1111122' 
DISL,ioos:station:DISL:KATA:1,2014-03-04T06:00:00Z,30.2583,-88.2131,0.0,8.16,22.38,-9999.0,'1111122,1111122,1111122' 
DISL,ioos:station:DISL:KATA:1,2014-03-04T06:30:00Z,30.2583,-88.2131,0.0,8.83,4.808,-9999.0,'1111122,1111122,1111122' 
DISL,ioos:station:DISL:KATA:1,2014-03-04T07:00:00Z,30.2583,-88.2131,0.0,9.01,16.28,-9999.0,'1111122,1111122,1111122' 
DISL,ioos:station:DISL:KATA:1,2014-03-04T07:30:00Z,30.2583,-88.2131,0.0,8.56,12.04,-9999.0,'1111122,1111122,1111122' 
DISL,ioos:station:DISL:KATA:1,2014-03-04T08:00:00Z,30.2583,-88.2131,0.0,7.85,5.619,-9999.0,'1111122,1111122,1111122' 
DISL,ioos:station:DISL:KATA:1,2014-03-04T08:30:00Z,30.2583,-88.2131,0.0,8.41,15.23,-9999.0,'1111122,1111122,1111122' 
DISL,ioos:station:DISL:KATA:1,2014-03-04T09:00:00Z,30.2583,-88.2131,0.0,7.73,6.575,-9999.0,'1111122,1111122,1111122' 
DISL,ioos:station:DISL:KATA:1,2014-03-04T09:30:00Z,30.2583,-88.2131,0.0,7.68,1.082,-9999.0,'1111122,1111122,1111122' 
DISL,ioos:station:DISL:KATA:1,2014-03-04T10:00:00Z,30.2583,-88.2131,0.0,8.54,10.16,-9999.0,'1111122,1111122,1111122' 
DISL,ioos:station:DISL:KATA:1,2014-03-04T10:30:00Z,30.2583,-88.2131,0.0,8.07,3.759,-9999.0,'1111122,1111122,1111122' 
DISL,ioos:station:DISL:KATA:1,2014-03-04T11:00:00Z,30.2583,-88.2131,0.0,7.79,8.43,-9999.0,'1111122,1111122,1111122' 
DISL,ioos:station:DISL:KATA:1,2014-03-04T11:30:00Z,30.2583,-88.2131,0.0,7.77,10.55,-9999.0,'1111122,1111122,1111122' 
DISL,ioos:station:DISL:KATA:1,2014-03-04T12:00:00Z,30.2583,-88.2131,0.0,8.21,13.19,-9999.0,'1111122,1111122,1111122' 
DISL,ioos:station:DISL:KATA:1,2014-03-04T12:30:00Z,30.2583,-88.2131,0.0,6.91,11.22,-9999.0,'1111122,1111122,1111122' 
DISL,ioos:station:DISL:KATA:1,2014-03-04T13:00:00Z,30.2583,-88.2131,0.0,5.96,11.77,-9999.0,'1111122,1111122,1111122' 
DISL,ioos:station:DISL:KATA:1,2014-03-04T13:30:00Z,30.2583,-88.2131,0.0,4.99,20.75,-9999.0,'1111122,1111122,1111122' 
DISL,ioos:station:DISL:KATA:1,2014-03-04T14:00:00Z,30.2583,-88.2131,0.0,4.45,19.09,-9999.0,'1111122,1111122,1111122' 
DISL,ioos:station:DISL:KATA:1,2014-03-04T14:30:00Z,30.2583,-88.2131,0.0,5.96,21.09,-9999.0,'1111122,1111122,1111122' 
DISL,ioos:station:DISL:KATA:1,2014-03-04T15:00:00Z,30.2583,-88.2131,0.0,5.75,9.07,-9999.0,'1111122,1111122,1111122' 
DISL,ioos:station:DISL:KATA:1,2014-03-04T15:30:00Z,30.2583,-88.2131,0.0,4.78,358.7,-9999.0,'1111122,1111122,1111122' 
DISL,ioos:station:DISL:KATA:1,2014-03-04T16:00:00Z,30.2583,-88.2131,0.0,5.71,355.7,-9999.0,'1111122,1111122,1111122' 
DISL,ioos:station:DISL:KATA:1,2014-03-04T16:30:00Z,30.2583,-88.2131,0.0,5.28,350.8,-9999.0,'1111122,1111122,1111122' 
DISL,ioos:station:DISL:KATA:1,2014-03-04T17:00:00Z,30.2583,-88.2131,0.0,6.1,14.08,-9999.0,'1111122,1111122,1111122' 
DISL,ioos:station:DISL:KATA:1,2014-03-04T17:30:00Z,30.2583,-88.2131,0.0,4.25,10.49,-9999.0,'1111122,1111122,1111122' 
DISL,ioos:station:DISL:KATA:1,2014-03-04T18:00:00Z,30.2583,-88.2131,0.0,3.58,28.41,-9999.0,'1111122,1111122,1111122' 
DISL,ioos:station:DISL:KATA:1,2014-03-04T18:30:00Z,30.2583,-88.2131,0.0,4.8,28.27,-9999.0,'1111122,1111122,1111122' 
DISL,ioos:station:DISL:KATA:1,2014-03-04T19:00:00Z,30.2583,-88.2131,0.0,4.32,24.74,-9999.0,'1111122,1111122,1111122' 
DISL,ioos:station:DISL:KATA:1,2014-03-04T19:30:00Z,30.2583,-88.2131,0.0,5.77,52.65,-9999.0,'1111122,1111122,1111122' 
DISL,ioos:station:DISL:KATA:1,2014-03-04T20:00:00Z,30.2583,-88.2131,0.0,4.56,10.75,-9999.0,'1111122,1111122,1111122' 
DISL,ioos:station:DISL:KATA:1,2014-03-04T20:30:00Z,30.2583,-88.2131,0.0,4.98,8.06,-9999.0,'1111122,1111122,1111122' 
DISL,ioos:station:DISL:KATA:1,2014-03-04T21:00:00Z,30.2583,-88.2131,0.0,3.66,16.91,-9999.0,'1111122,1111122,1111122' 
DISL,ioos:station:DISL:KATA:1,2014-03-04T21:30:00Z,30.2583,-88.2131,0.0,3.72,34.34,-9999.0,'1111122,1111122,1111122' 
DISL,ioos:station:DISL:KATA:1,2014-03-04T22:00:00Z,30.2583,-88.2131,0.0,5.79,43.45,-9999.0,'1111122,1111122,1111122' 
DISL,ioos:station:DISL:KATA:1,2014-03-04T22:30:00Z,30.2583,-88.2131,0.0,7.04,33.1,-9999.0,'1111122,1111122,1111122' 
DISL,ioos:station:DISL:KATA:1,2014-03-04T23:00:00Z,30.2583,-88.2131,0.0,6.78,44.7,-9999.0,'1111122,1111122,1111122' 
DISL,ioos:station:DISL:KATA:1,2014-03-04T23:30:00Z,30.2583,-88.2131,0.0,7.6,58.0,-9999.0,'1111122,1111122,1111122' 
DISL,ioos:station:DISL:KATA:1,2014-03-05T00:00:00Z,30.2583,-88.2131,0.0,7.09,59.41,-9999.0,'1111122,1111122,1111122' 
DISL,ioos:station:DISL:KATA:1,2014-03-05T00:30:00Z,30.2583,-88.2131,0.0,7.25,49.3,-9999.0,'1111122,1111122,1111122' 
DISL,ioos:station:DISL:KATA:1,2014-03-05T01:00:00Z,30.2583,-88.2131,0.0,6.46,34.4,-9999.0,'1111122,1111122,1111122' 
DISL,ioos:station:DISL:KATA:1,2014-03-05T01:30:00Z,30.2583,-88.2131,0.0,6.64,18.33,-9999.0,'1111122,1111122,1111122' 
DISL,ioos:station:DISL:KATA:1,2014-03-05T02:00:00Z,30.2583,-88.2131,0.0,6.78,11.85,-9999.0,'1111122,1111122,1111122' 
DISL,ioos:station:DISL:KATA:1,2014-03-05T02:30:00Z,30.2583,-88.2131,0.0,7.18,19.08,-9999.0,'1111122,1111122,1111122' 
DISL,ioos:station:DISL:KATA:1,2014-03-05T03:00:00Z,30.2583,-88.2131,0.0,7.36,20.97,-9999.0,'1111122,1111122,1111122' 
DISL,ioos:station:DISL:KATA:1,2014-03-05T03:30:00Z,30.2583,-88.2131,0.0,6.23,27.57,-9999.0,'1111122,1111122,1111122' 
DISL,ioos:station:DISL:KATA:1,2014-03-05T04:00:00Z,30.2583,-88.2131,0.0,7.84,34.28,-9999.0,'1111122,1111122,1111122' 
DISL,ioos:station:DISL:KATA:1,2014-03-05T04:30:00Z,30.2583,-88.2131,0.0,6.82,31.82,-9999.0,'1111122,1111122,1111122' 